SAUDISAT 5A

Last updated on Mon Sep 21 2026 00:02:46 GMT+0000 (Coordinated Universal Time)

1 43831U 18102A 26263.61531148 .00003508 00000+0 12753-3 0 9995 2 43831 97.2968 323.3573 0010322 147.2112 212.9771 15.28869868430258
UTC large
Height (km)
Speed (km/s)
/
Latitude / Longitude
Inclination (degrees)
Orbital Period (minutes)
Azimuth
Elevation
Range (km)
Doppler Factor

Next 0 passes for location: London (51.5072 / 0.1276)

No passes found over London.
SAUDISAT 5A